Flag for Spain Weather past 2 weeks in Madrid, Spain

Now
77 °F

Passing clouds.


Feels Like: 78 °F
Forecast: 63 / 90 °F
Wind: 9 mph from Northeast

Location: Madrid / Cuatro Vientos

Current Time: Jul 29, 2014 at 11:16:07 PM

Latest Report: Jul 29, 2014 at 10:30 PM


Visibility: N/A

Pressure: 30.01 "Hg

Humidity: 28%

Dew point: 41 °F

Location of MadridLocation

Historic Weather in Madrid — Graph

°F

Madrid temperature yesterday

Maximum temperature yesterday: 97 °F (at 6:00 PM)
Minimum temperature yesterday: 73 °F (at 7:00 AM)
Average temperature yesterday: 88 °F

Past Weeks' High & Low Weather Summary

 TemperatureHumidityPressure
High100 °F (Jul 16, 5:00 PM)77% (Jul 20, 7:00 AM)30.24 "Hg (Jul 20, 7:00 AM)
Low57 °F (Jul 20, 7:00 AM)9% (Jul 15, 7:30 PM)29.83 "Hg (Jul 24, 6:30 PM)
Average84 °F27%30.02 "Hg
* Reported Jul 14 10:00 PM — Jul 29 10:00 PM, Madrid, Weather by CustomWeather, © 2014

Note: Actual official high and low records may vary slightly from our data, if they occured in-between our weather recording intervals... More about our weather records

Advertising

Madrid weather history for previous 24 hours

 ConditionsComfort  
Time TempWeatherWind HumidityBarometerVisibility
10:00 PM
Jul 29
79 °FPassing clouds.6 mph26%30.01 "HgN/A
9:30 PM81 °FPassing clouds.6 mph21%29.98 "HgN/A
9:00 PM82 °FPassing clouds.5 mph19%29.98 "HgN/A
8:30 PM84 °FPassing clouds.6 mph18%29.98 "HgN/A
8:00 PM86 °FPassing clouds.7 mph15%29.98 "HgN/A
7:30 PM86 °FSunny.3 mph17%29.98 "Hg10 mi
7:00 PM88 °FSunny.3 mph16%29.98 "Hg10 mi
6:30 PM90 °FSunny.1 mph15%29.98 "Hg10 mi
6:00 PM88 °FSunny.3 mph15%29.98 "Hg10 mi
5:30 PM88 °FSunny.2 mph15%29.98 "Hg10 mi
5:00 PM86 °FSunny.3 mph17%30.01 "Hg10 mi
4:30 PM86 °FSunny.3 mph17%30.01 "Hg10 mi
4:00 PM84 °FSunny.2 mph19%30.01 "Hg10 mi
3:30 PM82 °FSunny.3 mph20%30.01 "Hg10 mi
3:00 PM82 °FSunny.3 mph21%30.04 "Hg10 mi
2:30 PM81 °FPassing clouds.10 mph23%30.04 "HgN/A
2:00 PM81 °FPassing clouds.8 mph24%30.04 "HgN/A
1:30 PM81 °FPassing clouds.5 mph23%30.04 "HgN/A
1:00 PM79 °FPassing clouds.6 mph26%30.07 "HgN/A
12:30 PM77 °FPassing clouds.8 mph28%30.07 "HgN/A
12:00 PM75 °FPassing clouds.10 mph31%30.07 "HgN/A
11:30 AM73 °FSunny.8 mph36%30.07 "Hg10 mi
11:00 AM72 °FPassing clouds.8 mph38%30.07 "HgN/A
10:30 AM70 °FPassing clouds.8 mph43%30.07 "HgN/A
10:00 AM70 °FPassing clouds.8 mph43%30.07 "HgN/A
9:30 AM68 °FPassing clouds.10 mph49%30.07 "HgN/A
9:00 AM66 °FPassing clouds.9 mph52%30.04 "HgN/A
8:30 AM66 °FPassing clouds.7 mph52%30.04 "HgN/A
8:00 AM64 °FPassing clouds.8 mph60%30.04 "HgN/A
7:30 AM64 °FPassing clouds.7 mph60%30.04 "HgN/A
7:00 AM66 °FPassing clouds.6 mph56%30.01 "HgN/A
11:30 PM
Jul 28
81 °FPassing clouds.7 mph32%29.98 "HgN/A
11:00 PM81 °FPassing clouds.10 mph30%29.98 "HgN/A
Weather by CustomWeather, © 2014

See weather overviewHow to use our weather pages